#timestamp,LO_Frequency,Hit,StdDev 
1583672415.9,286047000.9,N
1583672435.7,286046999.3,N
1583672455.6,286046999.0,N
1583672475.4,286046998.6,N
1583672495.3,286047002.4,N
1583672515.1,286047001.4,N
1583672516.0,286047001.4,N
1583672535.8,286047002.7,N
1583672555.7,286046999.8,N
1583672575.5,286047002.8,N
1583672595.4,286047001.9,N
1583672615.2,286047001.7,N
1583672635.0,286047002.2,N
1583672635.9,286047002.2,N
1583672655.8,286047000.0,N
1583672675.6,286047002.1,N
1583672695.5,286047004.0,N
1583672715.3,286047004.3,N
1583672735.1,286047001.6,N
1583672755.9,286047002.3,N
1583672775.7,286047000.2,N
1583672795.6,286047001.6,N
1583672815.4,286047002.5,N
1583672835.2,286047002.4,N
1583672855.1,286047002.4,N
1583672856.0,286047002.4,N
1583672875.8,286046999.8,N
1583672895.7,286047000.0,N
1583672915.5,286047002.8,N
1583672935.3,286047001.9,N
1583672955.2,286047003.7,N
1583672975.0,286047003.5,N
1583672975.9,286047003.5,N
1583672995.7,286047001.4,N
1583673015.6,286047002.2,N
1583673035.4,286047002.3,N
1583673055.3,286047002.5,N
1583673075.1,286046999.7,N
1583673095.8,286047001.3,N
1583673115.7,286047001.6,N
1583673135.5,286047002.0,N
1583673155.4,286047002.7,N
1583673175.2,286047002.7,N
1583673195.0,286047002.4,N
1583673195.9,286047002.4,N
1583673215.8,286047002.4,N
1583673235.6,286046999.7,N
1583673255.5,286047000.9,N
1583673275.3,286046999.7,N
1583673295.1,286047001.6,N
1583673315.9,286047001.3,N
1583673335.7,286046999.7,N
1583673355.5,286047002.2,N
1583673375.4,286047001.3,N
1583673395.2,286047002.1,N
1583673415.1,286047002.2,N
1583673446.0,286047018.8,E
1583673455.0,286047013.6,N
1583673455.9,286047013.6,P
1583673475.8,286047003.2,P
1583673495.6,286047002.2,N
1583673515.4,286046998.7,N
1583673535.3,286046992.0,N
1583673555.1,286046989.1,N
1583673575.8,286046987.8,N
1583673595.7,286046985.9,N
1583673615.5,286046985.7,N
1583673635.4,286046985.7,N
1583673655.2,286046984.6,N
1583673675.0,286046982.2,N
1583673675.9,286046982.2,N
1583673695.8,286046981.1,N
1583673715.6,286046980.9,N
1583673735.5,286046980.8,N
1583673755.3,286046983.1,N
1583673775.1,286046980.7,N
1583673795.9,286046981.0,N
1583673815.7,286046983.6,N
1583673835.5,286046983.4,N
1583673855.4,286046981.6,N
1583673875.2,286046981.3,N
1583673895.1,286046979.5,N
1583673896.0,286046979.5,N
1583673915.8,286046979.4,N
1583673935.6,286046981.5,N
1583673955.5,286046982.7,N
1583673975.3,286046981.7,N
1583673995.1,286046979.0,N
1583674015.9,286046980.4,N
1583674035.7,286046977.5,Y
1583674055.6,286046997.6,P
1583674075.4,286046997.0,N
1583674095.2,286046997.4,N
1583674115.1,286046996.7,N
1583674116.0,286046996.7,N
1583674135.8,286046995.6,N
1583674155.7,286046993.6,N
1583674175.5,286046994.9,N
1583674195.3,286046995.5,N
1583674215.2,286046998.0,N
1583674235.0,286046999.2,N
1583674235.9,286046999.2,N
1583674255.8,286046998.8,N
1583674275.6,286046997.1,N
1583674295.4,286046996.5,N
1583674315.3,286046996.8,N
1583674335.1,286046997.7,N
1583674355.9,286046995.4,N
1583674375.7,286046995.4,N
1583674395.5,286046997.1,N
1583674415.4,286046996.9,N
1583674435.2,286046997.2,N
1583674455.0,286046997.2,N
1583674455.9,286046997.2,N
1583674475.8,286046996.8,N
1583674495.6,286046997.5,N
1583674515.5,286046997.5,N
1583674535.3,286046998.0,N
1583674555.2,286046996.5,N
1583674575.9,286046999.0,N
1583674595.7,286047000.6,N
1583674615.6,286047001.6,N
1583674635.4,286047000.9,N
1583674655.2,286047002.6,N
1583674675.1,286047000.6,N
1583674676.0,286047000.6,N
1583674695.8,286047000.5,N
1583674715.7,286047002.2,N
1583674735.5,286047001.4,N
1583674755.3,286047002.7,N
1583674775.2,286046998.4,N
1583674795.0,286046998.1,N
1583674795.9,286046998.1,N
1583674815.8,286047001.1,N
1583674835.6,286047000.2,N
1583674855.4,286046999.8,N
1583674875.3,286047001.0,N
1583674895.1,286047000.5,N
1583674915.8,286047002.5,N
1583674935.7,286047002.2,N
1583674955.5,286047001.6,N
1583674975.4,286046999.8,N
1583674995.2,286047000.7,N
1583675015.0,286047000.7,N
1583675015.9,286047000.7,N
1583675035.8,286047002.3,N
1583675055.6,286046998.6,N
1583675075.5,286046999.0,N
1583675095.3,286046998.5,N
1583675115.1,286046999.9,N
1583675135.9,286046998.5,N
1583675155.7,286047000.2,N
1583675175.5,286047003.1,N
1583675195.4,286047004.0,N
1583675215.2,286047001.3,N
1583675235.1,286047001.8,N
1583675236.0,286047001.8,N
1583675255.8,286047002.5,N
1583675275.6,286047003.5,N
1583675295.5,286047003.4,N
1583675315.3,286047003.8,N
1583675335.2,286047001.9,N
1583675355.9,286047001.4,N
1583675375.7,286047003.5,N
1583675395.6,286047002.9,N
1583675415.4,286047004.2,N
1583675435.2,286047003.6,N
1583675455.1,286047004.0,N
1583675456.0,286047004.0,N
1583675475.8,286047006.0,Y
1583675495.7,286047002.3,P
1583675515.5,286047001.6,P
1583675535.3,286047003.2,P
1583675555.2,286046999.7,N
1583675575.0,286047000.8,N
1583675575.9,286047000.8,N
1583675595.8,286046996.8,Y
1583675615.6,286046997.3,P
1583675635.4,286046999.1,N
1583675655.3,286047001.1,N
1583675675.1,286047001.1,N
1583675695.9,286046998.7,N
1583675715.7,286046998.8,N
1583675735.5,286046999.7,N
1583675755.4,286046998.2,N
1583675775.2,286046999.0,N
1583675795.0,286047001.1,N
1583675796.0,286047001.1,N
1583675815.8,286046997.0,N
1583675835.6,286046997.4,N
1583675855.5,286046999.0,N
1583675875.3,286046999.4,N
1583675895.1,286047000.3,N
1583675915.9,286047002.8,N
1583675935.7,286047004.4,N
1583675955.6,286047001.3,N
1583675975.4,286047002.0,N
1583675995.2,286047000.3,N
